Clinton-Sherman, OK

5:31 PM CDT on April 23, 2018 (GMT -0500)
Clinton-Sherman

Weather History for KCSM - August, 2014

Change the Weather History Date:

Saturday, August 16, 2014

  Actual Average Record
Temperature  
Mean Temperature 88 °F -  
Max Temperature 100 °F 92 °F 105 °F (2011)
Min Temperature 77 °F 68 °F 64 °F (2004)
Cooling Degree Days 23    
Growing Degree Days 38 (Base 50)    
Moisture  
Dew Point 61 °F    
Average Humidity 45    
Maximum Humidity 66    
Minimum Humidity 22    
Precipitation  
Precipitation 0.00 in - - ()
Sea Level Pressure  
Sea Level Pressure 29.85 in    
Wind  
Wind Speed 5 mph (South)    
Max Wind Speed 10 mph    
Max Gust Speed 24 mph    
Visibility 10 miles    
Events Rain    
Averages and records for this station are not official NWS values.
T = Trace of Precipitation, MM = Missing Value Source: NWS Daily Summary

Daily Weather History Graph

Daily Weather History Graph

Search for Another Location

Airport or City:

Astronomy

Aug. 16, 2014 Rise Set
Actual Time 6:57 AM CDT 8:24 PM CDT
Civil Twilight 6:30 AM CDT 8:51 PM CDT
Nautical Twilight 5:57 AM CDT 9:23 PM CDT
Astronomical Twilight 5:24 AM CDT 9:57 PM CDT
Moon No Moon Rise 1:28 PM CDT (8/16)
Length of Visible Light 14h 21m
Length of Day
13h 27m
Waning Gibbous, 58% of the Moon is Illuminated
Aug 16
Waning Gibbous
Aug 17
Last Quarter
Aug 25
New
Sep 2
First Quarter
Sep 8
Full

Hourly Weather History & Observations

Time (CDT) Temp. Heat Index Dew Point Humidity Pressure Visibility Wind Dir Wind Speed Gust Speed Precip Events Conditions
12:53 AM 81.0 °F 82.2 °F 63.0 °F 54% 29.83 in 10.0 mi SSW 8.1 mph - N/A   Clear
1:53 AM 81.0 °F 81.9 °F 62.1 °F 52% 29.81 in 10.0 mi Calm Calm - N/A   Clear
2:53 AM 78.1 °F - 63.0 °F 60% 29.82 in 10.0 mi NW 4.6 mph - N/A   Clear
3:53 AM 77.0 °F - 63.0 °F 62% 29.81 in 10.0 mi ENE 4.6 mph - N/A   Clear
4:53 AM 78.1 °F - 62.1 °F 58% 29.81 in 10.0 mi SE 5.8 mph - N/A   Scattered Clouds
5:53 AM 77.0 °F - 64.0 °F 64% 29.83 in 10.0 mi NW 6.9 mph - N/A   Clear
6:53 AM 77.0 °F - 64.0 °F 64% 29.85 in 10.0 mi West 4.6 mph - N/A   Scattered Clouds
7:53 AM 77.0 °F - 64.9 °F 66% 29.85 in 10.0 mi NNW 6.9 mph - 0.00 in Rain Light Rain
8:53 AM 80.1 °F 81.5 °F 63.0 °F 56% 29.86 in 10.0 mi Calm Calm - N/A   Clear
9:53 AM 82.0 °F 83.0 °F 62.1 °F 51% 29.88 in 10.0 mi Calm Calm - N/A   Clear
10:53 AM 82.9 °F 83.7 °F 62.1 °F 49% 29.89 in 10.0 mi SE 5.8 mph - N/A   Clear
11:53 AM 86.0 °F 86.3 °F 62.1 °F 44% 29.89 in 10.0 mi SSE 4.6 mph - N/A   Clear
12:53 PM 90.0 °F 89.7 °F 60.1 °F 37% 29.88 in 10.0 mi WSW 4.6 mph - N/A   Clear
1:53 PM 93.0 °F 92.7 °F 60.1 °F 33% 29.87 in 10.0 mi SSE 5.8 mph - N/A   Clear
2:53 PM 93.9 °F 93.2 °F 59.0 °F 31% 29.85 in 10.0 mi Variable 3.5 mph - N/A   Clear
3:53 PM 96.1 °F 94.8 °F 57.0 °F 27% 29.83 in 10.0 mi Calm Calm - N/A   Clear
4:53 PM 99.0 °F 96.9 °F 54.0 °F 22% 29.81 in 10.0 mi North 4.6 mph - N/A   Clear
5:53 PM 98.1 °F 96.8 °F 57.0 °F 25% 29.80 in 10.0 mi SSE 6.9 mph - N/A   Clear
6:53 PM 97.0 °F 95.0 °F 55.0 °F 24% 29.81 in 10.0 mi East 4.6 mph - N/A   Clear
7:53 PM 91.9 °F 90.6 °F 57.0 °F 31% 29.82 in 10.0 mi ESE 4.6 mph - N/A   Clear
8:53 PM 93.0 °F 91.4 °F 55.9 °F 29% 29.83 in 10.0 mi Calm Calm - N/A   Mostly Cloudy
9:53 PM 84.9 °F 85.4 °F 62.1 °F 46% 29.87 in 10.0 mi South 10.4 mph - N/A   Clear
10:53 PM 86.0 °F 85.7 °F 60.1 °F 41% 29.90 in 10.0 mi WSW 6.9 mph 24.2 mph N/A   Partly Cloudy
11:53 PM 80.1 °F 81.2 °F 62.1 °F 54% 29.89 in 10.0 mi SW 4.6 mph - N/A   Clear